Weather History for Hobart, OK

Change the Weather History Date:

Thursday, January 17, 2013

  Actual Average Record
Temperature  
Mean Temperature 42 °F -  
Max Temperature 55 °F 48 °F 63 °F (2009)
Min Temperature 30 °F 26 °F 15 °F (1997)
Degree Days  
Heating Degree Days 22    
Moisture  
Dew Point 28 °F    
Average Humidity 61    
Maximum Humidity 79    
Minimum Humidity 37    
Precipitation  
Precipitation 0.00 in - - ()
Sea Level Pressure  
Sea Level Pressure 30.46 in    
Wind  
Wind Speed 9 mph (NNE)    
Max Wind Speed 18 mph    
Max Gust Speed -    
Visibility 10 miles    
Events      
Averages and records for this station are not official NWS values.
T = Trace of Precipitation, MM = Missing Value Source: NWS Daily Summary

Daily Weather History Graph

Daily Weather History Graph

Search for Another Location

Airport:

Trip Planner

Search our weather history database for the weather conditions in past years. The results will help you decide how hot, cold, wet, or windy it might be!

Date:

Astronomy

Jan. 17, 2013 Rise Set
Actual Time 7:43 AM CST 5:50 PM CST
Civil Twilight 7:15 AM CST 6:17 PM CST
Nautical Twilight 6:44 AM CST 6:48 PM CST
Astronomical Twilight 6:14 AM CST 7:18 PM CST
Moon 11:07 AM CST (1/17) No Moon Set
Length of Visible Light 11h 01m
Length of Day
10h 07m
Waxing Crescent, 38% of the Moon is Illuminated
Jan 17
Waxing Crescent
Jan 18
First Quarter
Jan 26
Full
Feb 3
Last Quarter
Feb 10
New

Hourly Weather History & Observations

Time (CST) Temp. Windchill Dew Point Humidity Pressure Visibility Wind Dir Wind Speed Gust Speed Precip Events Conditions
12:53 AM 35.1 °F 27.4 °F 28.0 °F 76% 30.30 in 10.0 mi NNW 10.4 mph - N/A   Clear
1:53 AM 34.0 °F 28.0 °F 27.0 °F 75% 30.33 in 10.0 mi NW 6.9 mph - N/A   Clear
2:53 AM 33.1 °F 28.7 °F 27.0 °F 78% 30.36 in 10.0 mi NNW 4.6 mph - N/A   Clear
3:53 AM 30.9 °F 22.8 °F 25.0 °F 79% 30.37 in 10.0 mi NNW 9.2 mph - N/A   Clear
4:53 AM 32.0 °F 24.2 °F 26.1 °F 79% 30.38 in 10.0 mi NNW 9.2 mph - N/A   Clear
5:53 AM 33.1 °F 24.9 °F 26.1 °F 75% 30.41 in 10.0 mi North 10.4 mph - N/A   Clear
6:53 AM 32.0 °F 22.5 °F 26.1 °F 79% 30.44 in 10.0 mi North 12.7 mph - N/A   Clear
7:53 AM 34.0 °F 26.0 °F 27.0 °F 75% 30.48 in 10.0 mi NNE 10.4 mph - N/A   Clear
8:53 AM 37.9 °F 30.0 °F 28.9 °F 70% 30.51 in 10.0 mi NNE 12.7 mph - N/A   Clear
9:53 AM 43.0 °F 34.8 °F 30.0 °F 60% 30.53 in 10.0 mi NE 18.4 mph - N/A   Clear
10:53 AM 46.4 °F 40.4 °F 30.2 °F 53% 30.52 in 10.0 mi NE 13.8 mph - N/A   Clear
11:53 AM 50.0 °F - 30.9 °F 48% 30.53 in 10.0 mi NNE 8.1 mph - N/A   Clear
12:53 PM 52.0 °F - 30.9 °F 45% 30.51 in 10.0 mi NNE 10.4 mph - N/A   Clear
1:53 PM 55.0 °F - 30.0 °F 38% 30.48 in 10.0 mi NNE 5.8 mph - N/A   Clear
2:53 PM 55.0 °F - 30.0 °F 38% 30.47 in 10.0 mi Variable 5.8 mph - N/A   Clear
3:53 PM 55.9 °F - 30.0 °F 37% 30.47 in 10.0 mi ENE 8.1 mph - N/A   Clear
4:53 PM 54.0 °F - 30.0 °F 40% 30.48 in 10.0 mi Calm Calm - N/A   Clear
5:53 PM 48.9 °F - 30.0 °F 48% 30.48 in 10.0 mi SE 3.5 mph - N/A   Clear
6:53 PM 48.0 °F - 28.9 °F 48% 30.49 in 10.0 mi SE 3.5 mph - N/A   Clear
7:53 PM 41.0 °F 38.0 °F 28.0 °F 60% 30.51 in 10.0 mi South 4.6 mph - N/A   Clear
8:53 PM 43.0 °F 40.3 °F 28.0 °F 56% 30.50 in 10.0 mi South 4.6 mph - N/A   Clear
9:53 PM 37.9 °F - 28.9 °F 70% 30.51 in 10.0 mi North - - N/A   Clear
10:53 PM 36.0 °F 29.6 °F 28.0 °F 73% 30.51 in 10.0 mi SSW 8.1 mph - N/A   Clear
11:53 PM 36.0 °F 28.5 °F 28.0 °F 73% 30.49 in 10.0 mi SSW 10.4 mph - N/A   Clear